Location: Zagreb
(45.8000°N, 16.0000°E)
Time: 13:18:52
(UTC+02:00)

A-11 Canister half - All Passes

Search period start: 19 July 2024 00:00
Search period end: 29 July 2024 00:00
Orbit: 1524 x 1684 km, 47.3° (Epoch: 18 July)

Date Brightness Start Highest point End Pass type
(mag) Time Alt. Az. Time Alt. Az. Time Alt. Az.
19 Jul - 03:56:05 10° SSE 04:01:23 16° SE 04:06:38 10° E visible
19 Jul - 05:55:12 10° SW 06:04:43 50° SE 06:13:57 10° ENE daylight
19 Jul - 07:59:24 10° WSW 08:09:24 90° SE 08:19:03 10° ENE daylight
19 Jul - 10:04:57 10° W 10:14:49 85° N 10:24:19 10° E daylight
19 Jul - 12:10:18 10° WNW 12:19:39 59° SSW 12:28:43 10° SE daylight
19 Jul - 14:16:47 10° W 14:23:04 20° SW 14:29:15 10° S daylight
20 Jul - 03:34:53 10° SSE 03:39:43 15° ESE 03:44:31 10° E visible
20 Jul - 05:33:30 10° SSW 05:42:58 48° SE 05:52:10 10° ENE daylight
20 Jul - 07:37:35 10° WSW 07:47:36 89° SSE 07:57:18 10° ENE daylight
20 Jul - 09:43:08 10° W 09:53:01 85° N 10:02:33 10° E daylight
20 Jul - 11:48:30 10° WNW 11:57:55 61° SSW 12:07:03 10° SE daylight
20 Jul - 13:54:49 10° W 14:01:23 21° SW 14:07:53 10° S daylight
21 Jul - 03:13:44 10° SSE 03:18:03 14° ESE 03:22:18 10° E visible
21 Jul - 05:11:51 10° SSW 05:21:14 46° SE 05:30:23 10° ENE daylight
21 Jul - 07:15:47 10° WSW 07:25:49 87° SSE 07:35:32 10° ENE daylight
21 Jul - 09:21:20 10° W 09:31:14 84° N 09:40:48 10° E daylight
21 Jul - 11:26:41 10° WNW 11:36:11 63° SSW 11:45:22 10° SE daylight
21 Jul - 13:32:52 10° W 13:39:44 23° SW 13:46:29 10° S daylight
22 Jul - 02:52:44 10° SE 02:56:22 12° ESE 02:59:59 10° E visible
22 Jul - 04:50:10 10° SSW 04:59:29 44° SE 05:08:35 10° ENE visible
22 Jul - 06:53:58 10° WSW 07:04:02 86° SSE 07:13:46 10° ENE daylight
22 Jul - 08:59:30 10° W 09:09:26 83° N 09:19:01 10° E daylight
22 Jul - 11:04:53 10° WNW 11:14:27 65° SSW 11:23:41 10° SE daylight
22 Jul - 13:10:57 10° W 13:18:03 24° SW 13:25:04 10° S daylight
23 Jul - 02:31:56 10° SE 02:34:42 11° ESE 02:37:28 10° ESE visible
23 Jul - 04:28:30 10° SSW 04:37:45 43° SE 04:46:48 10° ENE visible
23 Jul - 06:32:09 10° WSW 06:42:15 84° SSE 06:52:00 10° ENE daylight
23 Jul - 08:37:40 10° W 08:47:38 83° N 08:57:15 10° E daylight
23 Jul - 10:43:04 10° WNW 10:52:42 67° SSW 11:01:59 10° SE daylight
23 Jul - 12:49:02 10° W 12:56:23 26° SW 13:03:36 10° S daylight
24 Jul - 02:11:39 10° SE 02:13:03 10° ESE 02:14:25 10° ESE visible
24 Jul - 04:06:52 10° SSW 04:16:01 41° SE 04:25:00 10° ENE visible
24 Jul - 06:10:22 10° WSW 06:20:27 83° SSE 06:30:14 10° ENE daylight
24 Jul - 08:15:50 10° W 08:25:51 83° N 08:35:29 10° E daylight
24 Jul - 10:21:16 10° WNW 10:30:57 69° SSW 10:40:17 10° SE daylight
24 Jul - 12:27:09 10° WNW 12:34:43 27° SW 12:42:08 10° S daylight
25 Jul - 03:45:13 10° SSW 03:54:17 39° SE 04:03:10 10° ENE visible
25 Jul - 05:48:34 10° WSW 05:58:39 81° SSE 06:08:28 10° ENE daylight
25 Jul - 07:54:00 10° W 08:04:02 82° N 08:13:43 10° E daylight
25 Jul - 09:59:27 10° WNW 10:09:12 71° SSW 10:18:35 10° SE daylight
25 Jul - 12:05:15 10° WNW 12:13:02 29° SW 12:20:39 10° S daylight
26 Jul - 03:23:36 10° SSW 03:32:33 37° SE 03:41:22 10° ENE visible
26 Jul - 05:26:45 10° WSW 05:36:52 80° SSE 05:46:42 10° ENE daylight
26 Jul - 07:32:10 10° W 07:42:14 82° N 07:51:56 10° E daylight
26 Jul - 09:37:38 10° WNW 09:47:26 73° SSW 09:56:52 10° SE daylight
26 Jul - 11:43:22 10° WNW 11:51:21 31° SW 11:59:09 10° S daylight
27 Jul - 03:01:59 10° SSW 03:10:50 36° SE 03:19:32 10° ENE visible
27 Jul - 05:04:58 10° WSW 05:15:05 78° SSE 05:24:55 10° ENE daylight
27 Jul - 07:10:21 10° W 07:20:26 82° N 07:30:09 10° E daylight
27 Jul - 09:15:50 10° WNW 09:25:40 75° SSW 09:35:09 10° ESE daylight
27 Jul - 11:21:29 10° WNW 11:29:40 32° SW 11:37:37 10° SSE daylight
28 Jul - 02:40:23 10° SSW 02:49:06 34° SE 02:57:41 10° ENE visible
28 Jul - 04:43:11 10° WSW 04:53:18 76° SSE 05:03:09 10° ENE visible
28 Jul - 06:48:31 10° W 06:58:37 82° N 07:08:23 10° E daylight
28 Jul - 08:54:00 10° WNW 09:03:54 77° SSW 09:13:26 10° ESE daylight
28 Jul - 10:59:37 10° WNW 11:07:58 34° SW 11:16:06 10° SSE daylight
